Location: Chermignon
(46.2819°N, 7.4820°E)
Time: 17:30:04
(UTC+00:00)

Daily predictions for brighter satellites

Satellite Brightness Start Highest point End
(mag) Time Altitude Azimuth Time Altitude Azimuth Time Altitude Azimuth
Cosmos 2369 Rocket 3.7 16:48:07 10° WSW 16:53:19 36° NW 16:58:35 10° NNE
Cosmos 2297 Rocket 3.2 16:50:03 10° N 16:54:51 27° NE 16:59:37 10° ESE
USA 307 4.2 16:51:13 10° WNW 16:55:00 29° N 16:58:45 10° ENE
CZ-4B R/B 1.5 16:54:58 10° NNE 16:58:08 49° E 17:01:13 10° S
Cosmos 1602 Rocket 4.1 16:53:53 10° NNW 16:58:21 69° W 17:02:47 10° S
USA 308 4.2 16:56:04 10° WNW 16:59:50 29° N 17:03:35 10° ENE
Helios 1A Rocket 3.8 17:01:56 10° SE 17:05:26 28° ENE 17:08:57 10° N
Cosmos 292 Rocket 4.3 17:02:22 10° S 17:06:44 36° ESE 17:11:09 10° NE
Cosmos 1953 Rocket 4.0 17:02:55 10° N 17:07:05 40° ENE 17:11:16 10° SE
Cosmos 1340 4.0 17:04:31 10° NNE 17:07:24 20° ENE 17:10:17 10° ESE
Cosmos 2058 Rocket 4.1 17:03:53 10° SE 17:07:32 25° E 17:11:13 10° NNE
ERS-2 2.0 17:04:19 10° NNE 17:07:58 79° ESE 17:11:37 10° SSW
CORIOLIS 4.3 17:02:41 10° SSE 17:08:02 84° WSW 17:13:26 10° NNW
Cosmos 1939 Rocket 3.3 17:04:35 10° SE 17:08:18 39° ENE 17:11:58 10° N
FALCON 9 DEB 4.3 17:07:36 10° SSW 17:10:16 25° SE 17:12:33 12° E
Cosmos 1328 4.1 17:11:13 10° NNW 17:15:09 72° W 17:19:05 10° S
SAR-Lupe-4 3.7 17:12:29 10° NNE 17:16:01 51° E 17:19:31 10° S
SMAP 4.0 17:13:40 10° S 17:18:12 54° W 17:22:47 10° NNW
FALCON 9 DEB 4.1 17:16:45 10° SSW 17:19:34 28° SE 17:21:32 16° E
Cosmos 1331 Rocket 3.9 17:16:10 10° S 17:21:16 67° ESE 17:26:24 10° NNE
Cosmos 2219 3.6 17:16:39 10° NNW 17:22:09 42° NE 17:27:35 10° SE
Cosmos 2058 4.3 17:21:11 10° NNE 17:24:01 18° ENE 17:25:31 15° E
Timation 2 Rocket 4.1 17:20:16 10° NNW 17:26:51 69° ENE 17:33:36 10° SE
CZ-4 R/B 1.9 17:24:32 10° SE 17:28:06 35° ENE 17:31:39 10° N
COSMO-SKYMED 1 2.6 17:27:55 10° NNE 17:32:15 61° E 17:36:32 10° S
Aureole 3 3.2 17:30:01 10° SSE 17:33:03 36° E 17:35:51 10° NNE
FALCON 9 DEB 3.6 17:30:13 10° SSW 17:33:14 39° SE 17:34:45 23° E
SAR-Lupe-1 4.0 17:30:05 10° NNE 17:33:42 79° ESE 17:37:16 10° S
SeaSat 1 3.5 17:32:11 16° E 17:34:58 27° NE 17:39:05 10° N
Cosmos 1400 Rocket 3.2 17:32:07 10° SSE 17:36:02 44° E 17:39:57 10° NNE
H-2A R/B 4.4 17:34:11 10° N 17:37:33 24° WNW 17:40:52 10° WSW
USA 215 4.0 17:33:06 15° ENE 17:37:59 38° NNE 17:43:55 10° NW
Okean O Rocket 3.6 17:34:30 10° SSW 17:38:27 32° W 17:42:23 10° NNW
ATLAS 2AS CENTAUR R/B 4.2 17:34:03 10° NW 17:40:10 25° NNE 17:44:30 15° ENE
CZ-2C R/B 3.5 17:37:12 10° SE 17:42:46 51° ENE 17:48:15 10° N
Cosmos 968 Rocket 3.9 17:39:13 10° N 17:44:08 39° ENE 17:47:57 16° SE
Cosmos 1825 Rocket 4.4 17:40:49 10° NNW 17:45:11 55° W 17:49:29 10° S
ATLAS 5 CENTAUR R/B 4.0 17:43:22 10° WNW 17:46:04 16° NNW 17:49:01 10° NNE
USA 305 3.9 17:43:08 10° NW 17:47:05 34° NNE 17:49:00 23° ENE
Cosmos 1110 Rocket 4.4 17:42:43 10° SSW 17:47:57 68° WNW 17:53:10 10° NNE
GENESIS II 4.4 17:43:57 10° SW 17:47:58 76° NW 17:51:29 14° NNE
YAOGAN 1 2.6 17:44:23 10° SSE 17:48:35 53° ENE 17:52:49 10° N
Cosmos 1689 Rocket 2.0 17:45:58 10° N 17:48:52 82° W 17:51:44 10° SSW
Cosmos 1302 Rocket 4.0 17:45:25 10° S 17:50:35 63° ESE 17:55:50 10° NNE
Meteor 2-10 Rocket 4.0 17:46:17 10° SSE 17:51:07 35° E 17:55:48 10° NNE
USA 306 3.8 17:49:26 10° NW 17:53:25 35° NNE 17:55:01 26° ENE
ARGOS 3.8 17:50:29 17° ESE 17:53:54 35° ENE 17:58:46 10° N
Cosmos 1553 Rocket 4.0 17:48:13 10° S 17:54:26 60° E 18:00:37 10° NNE
Cosmos 1486 Rocket 4.2 17:50:01 10° NNW 17:55:14 51° ENE 17:59:22 16° SE
Meteor 2-8 Rocket 4.3 17:51:10 10° S 17:57:14 74° E 18:03:22 10° NNE
SL-08 ROCKET BODY 4.5 17:51:27 10° N 17:57:27 57° ENE 18:03:30 10° SSE
Cosmos 2227 Rocket 2.2 17:53:27 10° NNW 17:59:05 60° ENE 18:03:35 16° SE
SL-4 R/B 2.8 17:57:13 10° WNW 18:00:32 34° N 18:01:41 28° NE
Cosmos 1726 Rocket 4.2 17:57:14 10° SSW 18:01:30 58° WNW 18:05:50 10° N
Cosmos 1656 3.7 17:56:38 10° S 18:02:01 55° ESE 18:07:22 11° NE
Cosmos 1892 2.7 17:58:34 10° N 18:02:24 58° E 18:05:38 14° SSE
Cosmos 1346 Rocket 3.0 18:01:42 10° N 18:05:33 45° ENE 18:06:07 42° E
Cosmos 2263 Rocket 3.8 18:04:18 10° N 18:07:52 17° NE 18:07:58 17° NE
BREEZE-M R/B 3.8 18:04:07 10° WNW 18:08:06 62° N 18:11:38 29° E
Okean-O 2.7 18:03:42 10° S 18:08:08 77° WSW 18:12:35 10° NNW
CSL-04 Rocket 3.7 18:02:56 10° SSE 18:08:22 60° ENE 18:13:49 10° N
CZ-2D R/B 3.8 18:05:02 10° S 18:08:48 57° W 18:12:33 10° NNW
MOS 1 Rocket 3.4 18:04:53 10° NNE 18:09:23 49° E 18:14:08 10° S
Aureole 3 Rocket 3.2 18:07:32 10° SSW 18:11:16 75° W 18:16:25 10° N
Cosmos 1300 4.3 18:10:59 10° SW 18:14:31 36° WNW 18:18:05 10° N
Cosmos 1354 Rocket 4.5 18:09:56 10° N 18:14:51 38° ENE 18:15:25 37° ENE
SJ-11-01 4.2 18:11:33 13° SSE 18:15:37 66° ENE 18:20:17 10° N
GEOS 3 Rocket 3.6 18:12:44 24° SE 18:16:01 82° NE 18:21:27 10° NW
Cosmos 1697 Rocket 3.0 18:12:54 10° S 18:18:06 40° ESE 18:18:40 39° E
Meteor 2-15 Rocket 4.4 18:12:38 10° S 18:18:37 57° E 18:24:37 10° NNE
SL-08 R/B 4.5 18:13:39 10° N 18:19:52 84° W 18:25:58 10° S
Cosmos 1745 Rocket 3.9 18:13:39 10° N 18:19:57 73° E 18:26:16 10° SSE
Cosmos 44 3.7 18:16:37 10° SW 18:21:04 57° NW 18:24:23 19° NNE
CZ-4C R/B 4.2 18:17:14 10° NNW 18:22:17 22° NNE 18:24:33 19° NE
Lacrosse 5 3.4 18:21:05 10° NW 18:25:12 24° N 18:26:52 20° NNE
Cosmos 1408 3.1 18:23:10 10° N 18:25:49 45° N 18:25:49 45° N
H-2A R/B 2.0 18:22:36 10° SSE 18:28:00 84° ENE 18:33:30 10° NNW
Cosmos 1825 4.0 18:25:26 10° N 18:26:45 20° N 18:26:45 20° N
Meteor 2-15 4.4 18:25:50 10° S 18:31:59 88° E 18:38:10 10° N
Cosmos 1992 Rocket 3.9 18:27:04 10° S 18:32:10 59° ESE 18:32:52 54° ENE
USA 307 3.4 18:31:34 10° NW 18:35:30 48° N 18:35:30 48° N
Cosmos 1386 Rocket 4.5 18:31:25 10° N 18:37:52 89° W 18:44:13 10° S
Cosmos 2297 Rocket 2.7 18:33:42 10° NNW 18:39:16 59° WSW 18:44:22 12° S
FALCON 9 DEB 4.3 18:36:28 10° WSW 18:38:42 39° W 18:38:42 39° W
Ariane Rocket 3.9 18:41:47 34° NNE 18:41:47 34° NNE 18:45:08 10° N
USA 308 3.4 18:36:22 10° NW 18:40:06 49° N 18:40:06 49° N
Geosat 4.2 18:40:17 18° NNE 18:44:00 70° WNW 18:48:59 10° SW
BREEZE-M R/B 4.0 18:40:47 10° WNW 18:45:14 46° NW 18:45:14 46° NW
CSL-04 Debris 4.5 18:40:58 10° S 18:46:20 65° WSW 18:51:48 10° NNW
Cosmos 1709 Rocket 3.9 18:43:38 10° N 18:50:01 71° E 18:51:44 49° SE
Cosmos 2058 4.0 18:57:16 10° NNW 19:01:09 42° W 19:01:47 39° WSW
CZ-4 R/B 3.9 19:00:21 10° SW 19:03:14 20° W 19:06:07 10° NW
Cosmos 2315 Rocket 4.3 18:57:53 10° S 19:05:44 49° NNE 19:10:15 10° NNE
Cosmos 883 Rocket 4.3 19:00:25 10° S 19:06:36 89° W 19:12:46 10° N
BREEZE-M TANK 3.6 19:03:53 10° W 19:07:55 43° WSW 19:07:55 43° WSW
NOSS 3-4 (A) 4.0 19:03:51 10° NNW 19:10:30 52° NE 19:10:30 52° NE
NOSS 3-4 (C) 4.0 19:03:58 10° NNW 19:10:36 52° NE 19:10:36 52° NE
SeaSat 1 2.9 19:11:59 54° SW 19:12:13 55° WSW 19:17:05 10° NW
Timation 1 Rocket 4.3 19:06:48 10° NNW 19:12:19 74° N 19:12:19 74° N
Cosmos 2082 4.0 19:10:55 10° NNW 19:16:36 64° WSW 19:16:57 63° SW
NOSS 3-3 (A) 3.9 19:13:53 10° SW 19:19:18 78° WSW 19:19:18 78° WSW
NOSS 3-3 (C) 3.9 19:13:59 10° SW 19:19:26 78° WSW 19:19:26 78° WSW
USA 215 3.2 19:20:27 71° NNE 19:20:27 71° NNE 19:26:57 10° NW
Cosmos 2369 4.5 19:22:17 10° SSW 19:26:15 46° SW 19:26:15 46° SW
Atlas Centaur 2 4.3 19:21:53 10° SW 19:27:34 24° S 19:27:34 24° S
ATLAS 2AS CENTAUR R/B 3.2 19:25:27 10° NW 19:31:55 52° NNE 19:31:55 52° NNE
ATLAS 5 CENTAUR R/B 4.5 19:31:09 10° NNW 19:32:24 11° N 19:32:24 11° N
ARGOS 4.4 19:32:01 27° SW 19:34:06 37° W 19:39:08 10° NNW
Cosmos 2227 Rocket 4.3 19:38:21 10° NW 19:42:40 23° WSW 19:45:29 16° SW
Cosmos 2263 Rocket 3.8 19:47:07 10° NNW 19:49:39 27° NNW 19:49:39 27° NNW
Cosmos 1697 Rocket 4.3 19:56:57 10° WSW 20:00:30 30° W 20:00:30 30° W
Lacrosse 5 4.4 20:04:43 10° NW 20:06:03 17° NW 20:06:03 17° NW
CZ-4C R/B 3.9 20:05:34 10° NNW 20:09:44 37° N 20:09:44 37° N
